Regional Weather Roundup
Issued by NWS Sterling, VA

Home | Current Version | Previous Version | Graphics & Text | Print | Product List | Glossary On
Versions: 1 2 3 4 5 6 7 8 9 10 11 12 13 14 15 16 17 18 19 20 21 22 23 24 25 26 27 28
000
ASUS41 KLWX 231911
RWRLWX

REGIONAL WEATHER ROUNDUP
NATIONAL WEATHER SERVICE BALTIMORE MD/WASHINGTON DC
300 PM EDT SAT SEP 23 2017

Note: "FAIR" indicates few or no clouds below 12,000 feet
with no significant weather and/or obstructions to visibility.
 TC=TEMPERATURE CELSIUS

 * =Non NWS site. Station does not report precipitation (e.g. rain,
    snow, etc.), thunder, or fog.

DCZ001-MDZ009-015-VAZ040>042-051-053>054-232000-
WASHINGTON METRO

CITY           SKY/WX    TMP DP  RH WIND       PRES   REMARKS
WASHINGTON NAT MOSUNNY   88  65  46 N9        30.06F HX  90
DULLES         MOSUNNY   85  61  44 N9        30.07F
ANDREWS AFB    SUNNY     84  62  47 N10       30.05F
FT BELVOIR     SUNNY     86  62  43 NW7       30.06S
QUANTICO       MOSUNNY   84  68  58 E8        30.07S
COLLEGE PARK*  SUNNY     84  64  50 N8        30.05F
LEESBURG*      SUNNY     84  63  48 N7        30.09S
MANASSAS*      SUNNY     86  63  45 N9        30.07F
GAITHERSBURG*  SUNNY     84  60  44 NW5       30.09F

$$

MDZ006>007-011-014-232000-
BALTIMORE METRO

CITY           SKY/WX    TMP DP  RH WIND       PRES   REMARKS
BWI AIRPORT    MOSUNNY   87  61  41 N9G24     30.04F
MD SCIENCE CTR   N/A     87  58  37 MISG      30.05F
MARTIN STATE   SUNNY     88  63  42 N6        30.05F
ANNAPOLIS      SUNNY     86  66  51 N7        30.05F
FORT MEADE*      N/A     84  64  51 NW5       30.08S

$$

MDZ012-015-019>023-232000-
MARYLAND EASTERN SHORE

CITY           SKY/WX    TMP DP  RH WIND       PRES   REMARKS
OCEAN CITY     SUNNY     80  69  69 E8        30.04S
SALISBURY      MOSUNNY   85  67  54 N6        30.02F
CAMBRIDGE*     SUNNY     82  66  57 NW7       30.04S
EASTON*        MOSUNNY   86  63  45 NE9       30.08S

$$

MDZ017>025-232000-
SOUTHERN MARYLAND

CITY           SKY/WX    TMP DP  RH WIND       PRES   REMARKS
PATUXENT RIVER MOSUNNY   84  65  52 N12       30.05F
ST INIGOES     SUNNY     84  66  54 VRB3      30.04F
LEONARDTOWN*   SUNNY     81  63  54 NW5       30.07F

$$

MDZ003>005-232000-
NORTH CENTRAL MARYLAND

CITY           SKY/WX    TMP DP  RH WIND       PRES   REMARKS
FREDERICK*     SUNNY     88  55  33 VRB5      30.10F
HAGERSTOWN APT SUNNY     87  51  28 NE9       30.09F
WESTMINSTER*   SUNNY     84  57  39 N6        30.09F

$$

MDZ501>502-232000-
WESTERN MARYLAND

CITY           SKY/WX    TMP DP  RH WIND       PRES   REMARKS
OAKLAND*       CLOUDY    77  50  38 NE5       30.19S
CUMBERLAND*    MOSUNNY   90  46  22 NE8       30.14S

$$

VAZ025>031-232000-
SHENANDOAH VALLEY

CITY           SKY/WX    TMP DP  RH WIND       PRES   REMARKS
WINCHESTER*    SUNNY     81  54  39 NE6       30.10F
FRONT ROYAL*   SUNNY     82  55  39 N6        30.10S
LURAY*         SUNNY     84  54  34 NE6       30.11S
NEW MARKET*    SUNNY     86  46  24 N9G16     30.09S
STAUNTON*      SUNNY     82  53  35 N6        30.13S
WAYNESBORO*    SUNNY     82  55  39 CALM      30.13S

$$

WVZ021-048>050-054>055-232000-
EASTERN WEST VIRGINIA PANHANDLE

CITY           SKY/WX    TMP DP  RH WIND       PRES   REMARKS
MARTINSBURG    SUNNY     86  55  34 NE8       30.08F
PETERSBURG*    SUNNY     89  54  30 SE6       30.11F

$$

VAZ036>039-050-232000-
CENTRAL FOOTHILLS

CITY           SKY/WX    TMP DP  RH WIND       PRES   REMARKS
CHARLOTTESVILL SUNNY     86  54  33 E9        30.09S
CULPEPER*      SUNNY     85  63  46 N8        30.09S
ORANGE*        SUNNY     82  59  44 N7        30.09S
GORDONSVILLE*  SUNNY     84  61  45 E7        30.08S
WARRENTON*     SUNNY     87  55  34 N7        30.08S

$$

VAZ055>057-232000-
NORTH AND CENTRAL PIEDMONT

CITY           SKY/WX    TMP DP  RH WIND       PRES   REMARKS
FREDERICKSBRG* SUNNY     85  64  50 NW6       30.06S
STAFFORD*      SUNNY     85  60  43 N8        30.11S

$$

NCZ024-NYZ072-PAZ021-071-VAZ022-071-232000-
OTHER REGIONAL OBSERVATIONS

CITY           SKY/WX    TMP DP  RH WIND       PRES   REMARKS
NEW YORK CITY  SUNNY     86  48  26 NE8       30.04F
PHILADELPHIA   MOSUNNY   88  61  40 NE8G17    30.02F
PITTSBURGH     MOSUNNY   88  50  27 N5        30.13F
ROANOKE        MOSUNNY   87  53  31 CALM      30.10F
RICHMOND       MOSUNNY   86  62  44 N10       30.06S
RALEIGH        MOSUNNY   86  55  34 NE12G20   30.06F

$$

ANZ530>537-232000-
MARINE OBSERVATIONS

STATION/POSITION TIME  TEMP    WIND        PRES
                       AIR SEA DIR/SP/G
                 (UTC) (F)     (DEG/KT/KT) (MB)
THOMAS PT LIGHT  1900   78 76   50/  7/  8   N/A
BALT KEY BRIDGE  1848   83      10/  6/  7 1017.3F
COVE POINT       1848   77      10/  9/ 12 1018.3F
LEWISETTA        1848   80 77  350/  6/  8 1017.6F
SOLOMONS ISLAND  1848   79 77  330/ 10/ 13 1017.2F
PINEY POINT      1836           30/  8/ 10   N/A

$$





USA.gov is the U.S. government's official web portal to all federal, state and local government web resources and services.